CW7427 Weather Reports


Display with metric or nautical units.
time (UTC)temp
F
wind
direction
speed
MPH
gust
MPH
rain 1hr
in
rain 24hr
in
rain mn
in
humidity
%
barometer
mb
20260507012231 60 223 0.0 4.0 0.00 0.00 0.00 58 1012.6
20260507011721 59 222 0.0 5.0 0.00 0.00 0.00 59 1012.6
20260507011438 59 222 1.0 6.0 0.00 0.00 0.00 59 1012.6
20260507010705 59 248 1.0 6.0 0.00 0.00 0.00 59 1012.6
20260507010155 59 200 1.0 9.0 0.00 0.00 0.00 60 1012.6
20260507010127 59 262 1.0 9.0 0.00 0.00 0.00 60 1012.6
20260507005136 60 230 1.0 7.0 0.00 0.00 0.00 58 1012.6
20260507004629 62 139 0.0 5.0 0.00 0.00 0.00 58 1012.7
20260507004611 63 300 0.0 2.0 0.00 0.00 0.00 60 1012.2
20260507003617 64 300 0.0 2.0 0.00 0.00 0.00 59 1012.0
20260507003103 65 300 0.0 2.0 0.00 0.00 0.00 57 1012.0
20260507002603 66 300 0.0 4.0 0.00 0.00 0.00 57 1012.1
20260507002055 67 300 0.0 4.0 0.00 0.00 0.00 54 1012.1
20260507001541 67 300 0.0 2.0 0.00 0.00 0.00 55 1012.1
20260507001250 66 302 0.0 0.0 0.00 0.00 0.00 54 1012.1
20260507000520 65 302 0.0 0.0 0.00 0.00 0.00 58 1012.0
20260507000010 65 302 0.0 0.0 0.00 0.00 0.00 60 1012.1
20260506235505 64 302 0.0 2.0 0.00 0.00 0.00 62 1012.1
20260506235222 64 302 0.0 2.0 0.00 0.00 0.00 61 1012.1
20260506234445 64 303 0.0 4.0 0.00 0.00 0.00 62 1012.0
20260506233935 63 303 1.0 4.0 0.00 0.00 0.00 59 1012.0
20260506233431 63 306 0.0 3.0 0.00 0.00 0.00 59 1012.1
20260506232931 63 308 0.0 2.0 0.00 0.00 0.00 60 1012.0
20260506232650 64 311 0.0 4.0 0.00 0.00 0.00 62 1012.1
20260506231916 63 311 0.0 4.0 0.00 0.00 0.00 62 1012.1
20260506231417 62 313 0.0 2.0 0.00 0.00 0.00 62 1012.0
20260506230917 62 313 0.0 2.0 0.00 0.00 0.00 63 1012.1
20260506230413 62 315 0.0 3.0 0.00 0.00 0.00 63 1012.0
20260506225911 61 316 0.0 3.0 0.00 0.00 0.00 64 1012.1
20260506225405 61 323 0.0 2.0 0.00 0.00 0.00 63 1012.1
20260506225126 61 355 0.0 2.0 0.00 0.00 0.00 63 1012.0
20260506224357 60 5 0.0 2.0 0.00 0.00 0.00 64 1012.0
20260506223849 60 5 0.0 2.0 0.00 0.00 0.00 64 1012.0
20260506223349 60 5 0.0 1.0 0.00 0.00 0.00 65 1012.0
20260506222838 60 5 0.0 2.0 0.00 0.00 0.00 65 1012.0
20260506222338 59 5 0.0 2.0 0.00 0.00 0.00 66 1012.0
20260506221831 59 88 0.0 2.0 0.00 0.00 0.00 66 1012.0
20260506221323 58 88 0.0 2.0 0.00 0.00 0.00 68 1012.0
20260506220818 58 88 0.0 1.0 0.00 0.00 0.00 69 1011.9
20260506220301 57 88 0.0 1.0 0.00 0.00 0.00 72 1011.8
20260506215757 56 88 0.0 0.0 0.00 0.00 0.00 75 1011.8
20260506215257 55 88 0.0 0.0 0.00 0.00 0.00 78 1011.8
20260506214739 55 88 0.0 0.0 0.00 0.00 0.00 79 1011.8
20260506214714 55 88 0.0 0.0 0.00 0.00 0.00 80 1011.7
20260506213724 53 88 0.0 0.0 0.00 0.00 0.00 86 1011.6
20260506213222 51 88 0.0 0.0 0.00 0.00 0.00 90 1011.6
20260506212659 50 88 0.0 0.0 0.00 0.00 0.00 90 1011.6
20260506212144 50 88 0.0 0.0 0.00 0.00 0.00 90 1011.4
20260506211634 50 88 0.0 0.0 0.00 0.00 0.00 90 1011.4
20260506211130 50 88 0.0 0.0 0.00 0.00 0.00 90 1011.4
20260506210603 49 88 0.0 0.0 0.00 0.00 0.00 90 1011.4
20260506210042 49 88 0.0 0.0 0.00 0.00 0.00 90 1011.4
20260506205532 49 88 0.0 0.0 0.00 0.00 0.00 90 1011.3
20260506205030 49 88 0.0 0.0 0.00 0.00 0.00 90 1011.3
20260506204508 49 88 0.0 0.0 0.00 0.00 0.00 90 1011.3
20260506203955 49 88 0.0 0.0 0.00 0.00 0.00 90 1011.3
20260506203431 49 88 0.0 0.0 0.00 0.00 0.00 90 1011.3
20260506202918 49 88 0.0 0.0 0.00 0.00 0.00 90 1011.2
20260506202411 49 88 0.0 0.0 0.00 0.00 0.00 90 1011.2
20260506201840 49 88 0.0 0.0 0.00 0.00 0.00 90 1011.3
20260506201559 49 88 0.0 0.0 0.00 0.00 0.00 90 1011.3
20260506200837 49 88 0.0 0.0 0.00 0.00 0.00 90 1011.2
20260506200320 49 88 0.0 0.0 0.00 0.00 0.00 90 1011.2
20260506200042 49 88 0.0 0.0 0.00 0.00 0.00 90 1011.2
20260506195238 50 88 0.0 0.0 0.00 0.00 0.00 90 1011.3
20260506195229 50 88 0.0 0.0 0.00 0.00 0.00 90 1011.5
20260506194227 50 88 0.0 0.0 0.00 0.00 0.00 90 1011.5
20260506193720 50 88 0.0 0.0 0.00 0.00 0.00 90 1011.4
20260506193439 50 88 0.0 0.0 0.00 0.00 0.00 90 1011.4
20260506193200 50 88 0.0 0.0 0.00 0.00 0.00 90 1011.4
20260506192849 50 88 0.0 0.0 0.00 0.00 0.00 90 1011.4
20260506191650 50 88 0.0 0.0 0.00 0.00 0.00 90 1011.3
20260506191140 51 88 0.0 0.0 0.00 0.00 0.00 90 1011.3
20260506190641 51 88 0.0 0.0 0.00 0.00 0.00 90 1011.2
20260506190142 51 88 0.0 0.0 0.00 0.00 0.00 89 1011.1
20260506185636 51 88 0.0 0.0 0.00 0.00 0.00 90 1011.0
20260506185104 51 88 0.0 0.0 0.00 0.00 0.00 90 1010.9
20260506184821 51 88 0.0 0.0 0.00 0.00 0.00 90 1010.8
20260506184100 51 88 0.0 0.0 0.00 0.00 0.00 90 1010.7
20260506183554 51 88 0.0 0.0 0.00 0.00 0.00 90 1010.6
20260506183044 52 88 0.0 0.0 0.00 0.00 0.00 90 1010.6
20260506182540 52 88 0.0 0.0 0.00 0.00 0.00 90 1010.6
20260506182036 52 88 0.0 0.0 0.00 0.00 0.00 90 1010.6
20260506181517 52 88 0.0 0.0 0.00 0.00 0.00 89 1010.6
20260506181240 52 88 0.0 0.0 0.00 0.00 0.00 89 1010.6
20260506180503 52 88 0.0 0.0 0.00 0.00 0.00 89 1010.6
20260506175950 52 88 0.0 0.0 0.00 0.00 0.00 89 1010.7
20260506175432 52 88 0.0 0.0 0.00 0.00 0.00 89 1010.7
20260506174922 53 88 0.0 0.0 0.00 0.00 0.00 89 1010.8
20260506174348 53 88 0.0 0.0 0.00 0.00 0.00 89 1010.8
20260506173846 53 88 0.0 0.0 0.00 0.00 0.00 89 1010.9
20260506173320 53 88 0.0 0.0 0.00 0.00 0.00 89 1010.9
20260506172818 53 88 0.0 0.0 0.00 0.00 0.00 89 1011.0
20260506172739 53 88 0.0 0.0 0.00 0.00 0.00 89 1010.9
20260506172001 54 88 0.0 0.0 0.00 0.00 0.00 89 1011.2
20260506171228 54 88 0.0 0.0 0.00 0.00 0.00 89 1011.1
20260506170646 54 88 0.0 0.0 0.00 0.00 0.00 89 1011.0
20260506170136 55 88 0.0 0.0 0.00 0.00 0.00 89 1011.0
20260506165626 55 88 0.0 0.0 0.00 0.00 0.00 89 1011.0
20260506165119 55 88 0.0 0.0 0.00 0.00 0.00 89 1011.1
20260506164600 55 88 0.0 0.0 0.00 0.00 0.00 89 1011.1
20260506164050 55 88 0.0 0.0 0.00 0.00 0.00 88 1011.3
20260506163540 55 88 0.0 0.0 0.00 0.00 0.00 88 1011.4
20260506163032 55 88 0.0 0.0 0.00 0.00 0.00 88 1011.6
20260506162455 56 88 0.0 0.0 0.00 0.00 0.00 88 1011.7
20260506161954 56 88 0.0 0.0 0.00 0.00 0.00 88 1011.7
20260506161713 56 88 0.0 0.0 0.00 0.00 0.00 88 1011.7
20260506160938 56 88 0.0 0.0 0.00 0.00 0.00 88 1011.6
20260506160700 56 88 0.0 0.0 0.00 0.00 0.00 88 1011.7
20260506160159 56 88 0.0 0.0 0.00 0.00 0.00 88 1011.8
20260506155438 56 88 0.0 0.0 0.00 0.00 0.00 88 1011.9
20260506154937 57 88 0.0 0.0 0.00 0.00 0.00 89 1011.9
20260506154416 57 88 0.0 0.0 0.00 0.00 0.00 88 1011.9
20260506154353 57 88 0.0 0.0 0.00 0.00 0.00 88 1011.9
20260506153357 57 88 0.0 0.0 0.00 0.00 0.00 88 1011.9
20260506152845 57 88 0.0 0.0 0.00 0.00 0.00 88 1011.9
20260506152335 57 88 0.0 0.0 0.00 0.00 0.00 89 1011.9
20260506151827 58 88 0.0 0.0 0.00 0.00 0.00 88 1012.0
20260506151523 58 88 0.0 0.0 0.00 0.00 0.00 88 1012.3
20260506150741 58 88 0.0 0.0 0.00 0.00 0.00 88 1012.2
20260506150237 58 88 0.0 0.0 0.00 0.00 0.00 89 1012.2
20260506145728 58 88 0.0 0.0 0.00 0.00 0.00 89 1012.2
20260506145211 58 88 0.0 0.0 0.00 0.00 0.00 89 1012.2
20260506144825 60 88 0.0 0.0 0.00 0.00 0.00 89 1012.3
20260506144726 60 88 0.0 0.0 0.00 0.00 0.00 89 1012.3
20260506144716 59 88 0.0 0.0 0.00 0.00 0.00 89 1012.2
20260506144603 60 88 0.0 0.0 0.00 0.00 0.00 88 1012.8
20260506144335 60 88 0.0 0.0 0.00 0.00 0.00 89 1012.3
20260506144327 60 88 0.0 0.0 0.00 0.00 0.00 89 1012.4
20260506144320 60 88 0.0 0.0 0.00 0.00 0.00 89 1012.3
20260506144313 60 88 0.0 0.0 0.00 0.00 0.00 89 1012.4
20260506144307 60 88 0.0 0.0 0.00 0.00 0.00 89 1012.4
20260506144301 60 88 0.0 0.0 0.00 0.00 0.00 89 1012.4
20260506144254 60 88 0.0 0.0 0.00 0.00 0.00 89 1012.4
20260506144248 60 88 0.0 0.0 0.00 0.00 0.00 89 1012.5
20260506144242 60 88 0.0 0.0 0.00 0.00 0.00 89 1012.5
20260506144234 60 88 0.0 0.0 0.00 0.00 0.00 89 1012.6
20260506144228 60 88 0.0 0.0 0.00 0.00 0.00 89 1012.6
20260506144221 60 88 0.0 0.0 0.00 0.00 0.00 89 1012.7
20260506144214 60 88 0.0 0.0 0.00 0.00 0.00 88 1012.8
20260506144208 59 88 0.0 1.0 0.00 0.00 0.00 89 1012.3
20260506144202 59 88 0.0 1.0 0.00 0.00 0.00 89 1012.4
20260506144156 59 88 0.0 0.0 0.00 0.00 0.00 89 1012.3
20260506144150 59 88 0.0 0.0 0.00 0.00 0.00 89 1012.3
20260506144144 59 88 0.0 0.0 0.00 0.00 0.00 89 1012.3
20260506144136 59 88 0.0 0.0 0.00 0.00 0.00 89 1012.3
20260506144128 59 88 0.0 0.0 0.00 0.00 0.00 89 1012.3
20260506124301 60 88 0.0 0.0 0.00 0.00 0.00 88 1012.8
20260506123745 60 88 0.0 0.0 0.00 0.00 0.00 88 1013.0
20260506123237 60 88 0.0 0.0 0.00 0.00 0.00 87 1013.0
20260506122739 60 88 0.0 0.0 0.00 0.00 0.00 87 1013.2
20260506122456 60 88 0.0 0.0 0.00 0.00 0.00 87 1013.3
20260506121735 60 88 0.0 0.0 0.00 0.00 0.00 87 1013.4
20260506121233 60 88 0.0 0.0 0.00 0.00 0.00 87 1013.5
20260506120729 60 88 0.0 0.0 0.00 0.00 0.00 87 1013.5
20260506120209 60 88 0.0 0.0 0.00 0.00 0.00 87 1013.5
20260506115631 60 88 0.0 0.0 0.00 0.00 0.00 87 1013.5
20260506115130 60 88 0.0 0.0 0.00 0.00 0.00 87 1013.7
20260506114627 61 88 0.0 0.0 0.00 0.00 0.00 87 1013.7
20260506114101 61 88 0.0 0.0 0.00 0.00 0.00 87 1013.6
20260506113601 61 88 0.0 0.0 0.00 0.00 0.00 87 1013.7
20260506113040 61 88 0.0 0.0 0.00 0.00 0.00 87 1013.6
20260506112531 61 88 0.0 0.0 0.00 0.00 0.00 87 1013.7
20260506112009 61 88 0.0 0.0 0.00 0.00 0.00 87 1013.7
20260506111458 62 88 0.0 0.0 0.00 0.00 0.00 88 1013.8
20260506110941 62 88 0.0 0.0 0.00 0.00 0.00 88 1013.9
20260506110433 62 88 0.0 0.0 0.00 0.00 0.00 88 1013.8
20260506105913 62 88 0.0 0.0 0.00 0.00 0.00 88 1013.9
20260506105407 62 88 0.0 0.0 0.00 0.00 0.00 88 1013.9
20260506105126 62 88 0.0 0.0 0.00 0.00 0.00 88 1013.9
20260506104341 62 88 0.0 0.0 0.00 0.00 0.00 88 1013.9
20260506103835 62 88 0.0 0.0 0.00 0.00 0.00 88 1013.9
20260506103309 62 88 0.0 1.0 0.00 0.00 0.00 89 1014.0
20260506103031 62 88 0.0 0.0 0.00 0.00 0.00 89 1014.0
20260506102251 61 88 0.0 0.0 0.00 0.00 0.00 89 1014.0
20260506102007 61 88 0.0 0.0 0.00 0.00 0.00 89 1014.0
20260506101242 61 88 0.0 0.0 0.00 0.00 0.00 88 1014.0
20260506101003 61 88 0.0 0.0 0.00 0.00 0.00 87 1014.1
20260506100209 62 88 0.0 0.0 0.00 0.00 0.00 87 1014.1
20260506095924 62 88 0.0 0.0 0.00 0.00 0.00 86 1014.0
20260506095141 62 88 0.0 0.0 0.00 0.00 0.00 87 1014.0
20260506094643 62 88 0.0 0.0 0.00 0.00 0.00 87 1014.0
20260506094142 62 88 0.0 0.0 0.00 0.00 0.00 87 1014.1
20260506093631 62 88 0.0 0.0 0.00 0.00 0.00 86 1014.0
20260506093116 62 88 0.0 0.0 0.00 0.00 0.00 86 1014.0
20260506092602 62 88 0.0 0.0 0.00 0.00 0.00 86 1014.1
20260506092049 63 88 0.0 0.0 0.00 0.00 0.00 85 1014.0
20260506091534 63 88 0.0 0.0 0.00 0.00 0.00 85 1014.2
20260506091026 63 88 0.0 0.0 0.00 0.00 0.00 85 1014.2
20260506090510 63 88 0.0 1.0 0.00 0.00 0.00 85 1014.2
20260506090010 63 88 0.0 1.0 0.00 0.00 0.00 85 1014.3
20260506085726 63 88 0.0 0.0 0.00 0.00 0.00 84 1014.3
20260506084946 63 88 0.0 0.0 0.00 0.00 0.00 84 1014.3
20260506084434 63 88 0.0 1.0 0.00 0.00 0.00 83 1014.3
20260506084138 64 88 0.0 2.0 0.00 0.00 0.00 83 1014.3
20260506084025 63 88 0.0 1.0 0.00 0.00 0.00 83 1014.3
20260506082911 64 88 0.0 2.0 0.00 0.00 0.00 83 1014.2
20260506082358 64 88 0.0 0.0 0.00 0.00 0.00 82 1014.2
20260506081851 64 88 0.0 0.0 0.00 0.00 0.00 82 1014.2
20260506081345 64 88 0.0 2.0 0.00 0.00 0.00 81 1014.2
20260506081053 64 88 0.0 0.0 0.00 0.00 0.00 81 1014.2
20260506080318 64 88 0.0 1.0 0.00 0.00 0.00 80 1014.1
20260506073231 65 88 0.0 1.0 0.00 0.00 0.00 77 1014.1
20260506072724 66 88 0.0 2.0 0.00 0.00 0.00 76 1014.1
20260506072503 66 88 0.0 2.0 0.00 0.00 0.00 75 1014.1
20260506072402 67 88 0.0 2.0 0.00 0.00 0.00 73 1014.2
20260506071750 66 88 0.0 2.0 0.00 0.00 0.00 74 1014.1
20260506070652 67 88 0.0 3.0 0.00 0.00 0.00 73 1014.1
20260506070143 67 88 0.0 1.0 0.00 0.00 0.00 72 1014.0
20260506062047 69 88 0.0 4.0 0.00 0.00 0.00 66 1014.2
20260506061748 70 91 0.0 4.0 0.00 0.00 0.00 64 1014.2
20260506061031 70 92 0.0 0.0 0.00 0.00 0.00 64 1014.3
20260506060745 70 92 0.0 2.0 0.00 0.00 0.00 63 1014.3
20260506051344 70 92 0.0 0.0 0.00 0.00 0.00 62 1014.6
20260506050833 70 92 0.0 0.0 0.00 0.00 0.00 62 1014.7
20260506050549 70 92 0.0 1.0 0.00 0.00 0.00 62 1014.7
20260506044806 71 92 0.0 1.0 0.00 0.00 0.00 60 1015.0
20260506044302 71 92 0.0 1.0 0.00 0.00 0.00 61 1015.0
20260506044021 71 92 0.0 2.0 0.00 0.00 0.00 61 1014.9
20260506043243 70 92 0.0 2.0 0.00 0.00 0.00 62 1015.0
20260506043013 70 92 0.0 1.0 0.00 0.00 0.00 62 1015.0
20260506042456 70 92 0.0 0.0 0.00 0.00 0.00 63 1015.1
20260506041727 70 92 0.0 1.0 0.00 0.00 0.00 62 1015.2
20260506041216 70 92 0.0 1.0 0.00 0.00 0.00 62 1015.2
20260506040710 70 92 0.0 1.0 0.00 0.00 0.00 61 1015.2
20260506040423 70 92 0.0 1.0 0.00 0.00 0.00 61 1015.3
20260506035655 70 92 0.0 1.0 0.00 0.00 0.00 62 1015.4
20260506035146 70 92 0.0 0.0 0.00 0.00 0.00 62 1015.4
20260506034638 69 92 0.0 0.0 0.00 0.00 0.00 64 1015.4
20260506034133 69 92 0.0 0.0 0.00 0.00 0.00 63 1015.6
20260506033849 69 92 0.0 1.0 0.00 0.00 0.00 62 1015.7
20260506033116 69 92 0.0 1.0 0.00 0.00 0.00 62 1015.7
20260506032606 69 92 0.0 0.0 0.00 0.00 0.00 62 1015.7
20260506032102 69 92 0.0 0.0 0.00 0.00 0.00 64 1015.8
20260506031546 69 92 0.0 0.0 0.00 0.00 0.00 64 1015.9
20260506031035 69 92 0.0 0.0 0.00 0.00 0.00 64 1016.0
20260506030529 69 92 0.0 0.0 0.00 0.00 0.00 63 1016.1
20260506030024 70 92 0.0 1.0 0.00 0.00 0.00 63 1016.2
20260506025524 70 92 0.0 1.0 0.00 0.00 0.00 62 1016.3
20260506025015 71 92 0.0 2.0 0.00 0.00 0.00 61 1016.3
20260506024509 70 92 0.0 2.0 0.00 0.00 0.00 63 1016.5
20260506024011 70 92 0.0 4.0 0.00 0.00 0.00 63 1016.6
20260506023502 69 92 1.0 4.0 0.00 0.00 0.00 62 1016.7
20260506023004 70 93 1.0 4.0 0.00 0.00 0.00 61 1016.7
20260506022458 71 92 0.0 4.0 0.00 0.00 0.00 63 1016.8
20260506021958 71 92 0.0 4.0 0.00 0.00 0.00 61 1016.9
20260506021453 71 92 0.0 2.0 0.00 0.00 0.00 62 1017.0
20260506021221 69 92 0.0 1.0 0.00 0.00 0.00 62 1017.3
20260506020439 69 92 0.0 1.0 0.00 0.00 0.00 64 1017.4
20260506015924 69 92 0.0 0.0 0.00 0.00 0.00 62 1017.5
20260506015411 69 92 0.0 1.0 0.00 0.00 0.00 62 1017.6
20260506015131 70 90 0.0 1.0 0.00 0.00 0.00 61 1017.6
20260506014605 69 152 0.0 1.0 0.00 0.00 0.00 61 1017.8
20260506013827 69 152 0.0 4.0 0.00 0.00 0.00 61 1017.8
20260506013316 69 155 0.0 4.0 0.00 0.00 0.00 61 1017.9
20260506012756 69 155 0.0 2.0 0.00 0.00 0.00 62 1018.1